Find Starlink 32173

NORAD ID: 60586 Int'l Des: 2024-150 Owner: SPXS Country: US Constellation: starlink operational
LEOCIRCULAR

リアルタイム位置

3D地球を読み込み中...

Starlink 32173について

説明を読み込み中...

次回通過

Passes for default location (London). Set your location on the main map for personalized predictions.

高度履歴

Loading altitude history...

軌道要素

1 60586U 24150D 26129.98026258 -.00001821 00000-0 -42792-4 0 9999
2 60586 53.1622 21.7402 0001246 76.5249 283.5892 15.34389850 97434
Epoch: May 9, 2026 • Age: 23 hours

現在のステータス

高度 465.5 km
速度 7.63 km/s
衛星直下点 -8.93°S, 1.7°E
打ち上げ日 Aug 20, 2024
運用期間 1.7 years
タイプ internet

技術仕様

分類 Payload
質量 730.00 kg
乾燥質量 700.00 kg
総質量 730.00 kg
長さ 0.30 m
直径 4.10 m
スパン 29.00 m
形状 Box + pan
製造者 SPXS
バスタイプ Starlink V2M
フェーズステータス In Orbit
所有者/国 SPXS/US

Most Searched